KLM777 EDDM-EDDF

Flight info

Callsign KLM777
Flight time N/A
Altitude 24000
Route GIVMI6Q/08L GIVMI Y101 ERNAS T161 DEBHI DEBHI1B
Aircraft A359/H-SDE2E3GHIJ3J4J5LM1ORWXY/LB1D1

Departure

Time N/A
Airport Munich Airport (EDDM)

Arrival

Time 2026-04-17 10:38
Airport Frankfurt Main Airport (EDDF)
Time Latitude Longitude Altitude Speed Heading
2026-04-17 10:29 50.05376 8.34585 992 ft 213 kts 74°
2026-04-17 10:30 50.05155 8.37029 959 ft 274 kts 126°
2026-04-17 10:30 50.03685 8.39927 2156 ft 405 kts 131°
2026-04-17 10:30 50.01489 8.43455 3883 ft 494 kts 137°
2026-04-17 10:30 49.98709 8.47119 5956 ft 549 kts 143°
2026-04-17 10:31 49.95539 8.50773 8126 ft 586 kts 139°
2026-04-17 10:31 49.93165 8.56079 9278 ft 617 kts 110°
2026-04-17 10:31 49.92042 8.62587 8703 ft 631 kts 99°
2026-04-17 10:31 49.91695 8.69309 7902 ft 637 kts 89°
2026-04-17 10:32 49.92144 8.76144 7253 ft 638 kts 79°
2026-04-17 10:32 49.93347 8.82762 6947 ft 635 kts 69°
2026-04-17 10:32 49.95187 8.88979 6726 ft 632 kts 63°
2026-04-17 10:32 49.97017 8.95186 6456 ft 633 kts 68°
2026-04-17 10:33 49.98515 9.01630 6002 ft 635 kts 72°
2026-04-17 10:33 49.99689 9.08265 5591 ft 636 kts 77°
2026-04-17 10:33 50.00650 9.14964 5314 ft 632 kts 68°
2026-04-17 10:33 50.03800 9.19394 6429 ft 623 kts 27°
2026-04-17 10:34 50.07967 9.20326 7099 ft 616 kts 354°
2026-04-17 10:34 50.11999 9.18628 7839 ft 609 kts 324°
2026-04-17 10:34 50.14593 9.13420 7280 ft 617 kts 292°
2026-04-17 10:34 50.15157 9.06941 6283 ft 607 kts 252°
2026-04-17 10:35 50.13227 9.01078 7097 ft 612 kts 237°
2026-04-17 10:35 50.10896 8.95494 7472 ft 613 kts 237°
2026-04-17 10:35 50.09213 8.90156 7053 ft 482 kts 255°
2026-04-17 10:35 50.09105 8.85483 6429 ft 392 kts 271°
2026-04-17 10:36 50.08656 8.80793 5895 ft 511 kts 255°
2026-04-17 10:36 50.07661 8.75457 5013 ft 467 kts 253°
2026-04-17 10:36 50.06816 8.71094 4226 ft 393 kts 253°
2026-04-17 10:36 50.06159 8.67722 3371 ft 241 kts 252°
2026-04-17 10:37 50.05696 8.65528 1347 ft 217 kts 249°
2026-04-17 10:37 50.05246 8.63800 1039 ft 127 kts 248°
2026-04-17 10:37 50.04943 8.62593 741 ft 109 kts 250°
2026-04-17 10:37 50.04768 8.61815 436 ft 120 kts 246°
2026-04-17 10:38 50.04656 8.31173 461 ft 3 kts 296°
2026-04-17 10:38 50.04756 8.31363 461 ft 1 kts 73°
2026-04-17 10:39 50.04857 8.31888 461 ft 147 kts 73°
2026-04-17 10:39 50.05265 8.34163 760 ft 249 kts 81°
2026-04-17 10:39 50.05345 8.36848 4229 ft 267 kts 91°
2026-04-17 10:39 50.05474 8.40784 5135 ft 448 kts 78°
2026-04-17 10:40 50.06815 8.45764 5234 ft 558 kts 61°
2026-04-17 10:40 50.08980 8.51243 5014 ft 622 kts 56°
2026-04-17 10:40 50.11648 8.56778 4813 ft 635 kts 50°
2026-04-17 10:40 50.14610 8.61875 4716 ft 635 kts 45°
2026-04-17 10:41 50.17639 8.66760 4627 ft 636 kts 49°
2026-04-17 10:41 50.20230 8.72346 4359 ft 637 kts 63°
2026-04-17 10:41 50.21548 8.78946 3483 ft 642 kts 83°
2026-04-17 10:41 50.21423 8.85122 2530 ft 496 kts 102°
2026-04-17 10:42 50.20503 8.89675 3288 ft 437 kts 111°
2026-04-17 10:42 50.19259 8.94571 4771 ft 528 kts 115°
2026-04-17 10:42 50.17343 8.99172 6120 ft 443 kts 135°
2026-04-17 10:42 50.15073 9.00293 6822 ft 293 kts 225°
2026-04-17 10:43 50.14742 8.97742 5429 ft 234 kts 248°
2026-04-17 10:43 50.13691 8.95097 5259 ft 354 kts 240°
2026-04-17 10:43 50.12153 8.91259 6602 ft 482 kts 238°
2026-04-17 10:43 50.10356 8.86158 6775 ft 579 kts 246°
2026-04-17 10:44 50.08837 8.80156 5809 ft 617 kts 250°
2026-04-17 10:44 50.07764 8.74867 4656 ft 332 kts 254°
2026-04-17 10:44 50.07214 8.72076 2636 ft 247 kts 251°
2026-04-17 10:44 50.06669 8.69703 1884 ft 220 kts 249°
2026-04-17 10:45 50.06124 8.67550 1633 ft 215 kts 247°
2026-04-17 10:45 50.05592 8.65350 1627 ft 202 kts 251°
2026-04-17 10:45 50.05149 8.63463 1348 ft 172 kts 249°
2026-04-17 10:45 50.04733 8.61850 923 ft 170 kts 247°
2026-04-17 10:46 50.04344 8.60098 686 ft 172 kts 251°
2026-04-17 10:46 50.03934 8.58342 424 ft 153 kts 248°
2026-04-17 10:46 50.03537 8.56702 423 ft 122 kts 248°
2026-04-17 10:46 50.03242 8.55546 421 ft 138 kts 241°